TDR152 LDDU-LJLJ

Flight info

Callsign TDR152
Flight time 0h 51m
Altitude 20000
Route AMUGO L611 UVODI L862 GISER L868 DARZA
Aircraft A320/M-SDE3FGHIRWY/LB1

Departure

Time 2026-04-29 14:28
Airport Dubrovnik Ruđer Bošković Airport (LDDU)

Arrival

Time 2026-04-29 15:19
Airport Ljubljana Jože Pučnik Airport (LJLJ)
Time Latitude Longitude Altitude Speed Heading
2026-04-29 14:03 42.56069 18.26352 534 ft 0 kts 208°
2026-04-29 14:21 42.56073 18.26356 534 ft 3 kts 208°
2026-04-29 14:21 42.56097 18.26373 534 ft 4 kts 210°
2026-04-29 14:21 42.56114 18.26394 534 ft 4 kts 264°
2026-04-29 14:22 42.56110 18.26419 534 ft 3 kts 298°
2026-04-29 14:22 42.56103 18.26438 534 ft 0 kts 298°
2026-04-29 14:24 42.56104 18.26435 534 ft 2 kts 298°
2026-04-29 14:24 42.56134 18.26358 534 ft 14 kts 298°
2026-04-29 14:24 42.56179 18.26248 534 ft 13 kts 297°
2026-04-29 14:24 42.56216 18.26149 534 ft 12 kts 298°
2026-04-29 14:25 42.56271 18.26012 534 ft 18 kts 299°
2026-04-29 14:25 42.56328 18.25870 534 ft 16 kts 298°
2026-04-29 14:25 42.56379 18.25743 534 ft 14 kts 298°
2026-04-29 14:25 42.56425 18.25629 534 ft 13 kts 299°
2026-04-29 14:26 42.56472 18.25510 534 ft 18 kts 297°
2026-04-29 14:26 42.56549 18.25316 534 ft 26 kts 298°
2026-04-29 14:26 42.56636 18.25094 534 ft 27 kts 298°
2026-04-29 14:26 42.56728 18.24863 534 ft 28 kts 298°
2026-04-29 14:27 42.56827 18.24677 534 ft 20 kts 342°
2026-04-29 14:27 42.56927 18.24765 533 ft 23 kts 84°
2026-04-29 14:27 42.56831 18.25073 532 ft 57 kts 119°
2026-04-29 14:28 42.56054 18.27005 565 ft 165 kts 116°
2026-04-29 14:28 42.55534 18.28340 1277 ft 158 kts 120°
2026-04-29 14:28 42.55019 18.29661 1992 ft 159 kts 119°
2026-04-29 14:28 42.54505 18.30991 2611 ft 160 kts 119°
2026-04-29 14:29 42.53972 18.32341 3242 ft 160 kts 120°
2026-04-29 14:29 42.53286 18.33493 3760 ft 167 kts 150°
2026-04-29 14:29 42.52112 18.33817 4032 ft 186 kts 192°
2026-04-29 14:29 42.50933 18.32917 4282 ft 212 kts 228°
2026-04-29 14:30 42.50279 18.31015 4615 ft 239 kts 261°
2026-04-29 14:30 42.50475 18.28680 5032 ft 263 kts 289°
2026-04-29 14:30 42.51222 18.26374 5803 ft 270 kts 294°
2026-04-29 14:30 42.52039 18.24073 6680 ft 272 kts 294°
2026-04-29 14:31 42.52881 18.21772 7532 ft 273 kts 295°
2026-04-29 14:31 42.53732 18.19458 8384 ft 275 kts 295°
2026-04-29 14:31 42.54585 18.17118 9223 ft 278 kts 295°
2026-04-29 14:31 42.55441 18.14756 10053 ft 280 kts 295°
2026-04-29 14:32 42.56321 18.12313 10448 ft 299 kts 295°
2026-04-29 14:32 42.57264 18.09674 10648 ft 323 kts 295°
2026-04-29 14:32 42.58267 18.06856 11003 ft 338 kts 295°
2026-04-29 14:32 42.59293 18.03963 11691 ft 341 kts 295°
2026-04-29 14:33 42.60325 18.01053 12458 ft 343 kts 295°
2026-04-29 14:33 42.61361 17.98125 13203 ft 345 kts 295°
2026-04-29 14:33 42.62405 17.95177 13927 ft 348 kts 295°
2026-04-29 14:33 42.63456 17.92207 14562 ft 350 kts 295°
2026-04-29 14:34 42.64515 17.89217 15193 ft 352 kts 295°
2026-04-29 14:34 42.65580 17.86210 15824 ft 355 kts 295°
2026-04-29 14:34 42.66653 17.83182 16446 ft 357 kts 295°
2026-04-29 14:34 42.67733 17.80132 17066 ft 359 kts 295°
2026-04-29 14:35 42.68818 17.77059 17672 ft 362 kts 294°
2026-04-29 14:35 42.69908 17.73959 18294 ft 365 kts 294°
2026-04-29 14:35 42.71004 17.70838 18811 ft 367 kts 294°
2026-04-29 14:35 42.72108 17.67693 19354 ft 370 kts 294°
2026-04-29 14:36 42.73218 17.64527 19898 ft 372 kts 294°
2026-04-29 14:36 42.74333 17.61343 20429 ft 374 kts 294°
2026-04-29 14:36 42.75451 17.58138 20958 ft 376 kts 294°
2026-04-29 14:36 42.76575 17.54914 21474 ft 378 kts 294°
2026-04-29 14:37 42.77705 17.51673 21991 ft 380 kts 294°
2026-04-29 14:37 42.78844 17.48412 22481 ft 382 kts 294°
2026-04-29 14:37 42.79987 17.45134 22955 ft 384 kts 294°
2026-04-29 14:37 42.81134 17.41835 23422 ft 387 kts 294°
2026-04-29 14:38 42.82285 17.38517 23831 ft 389 kts 294°
2026-04-29 14:38 42.83441 17.35173 24182 ft 391 kts 294°
2026-04-29 14:38 42.84604 17.31811 24535 ft 393 kts 294°
2026-04-29 14:38 42.85772 17.28429 24880 ft 396 kts 294°
2026-04-29 14:39 42.86945 17.25027 25225 ft 398 kts 294°
2026-04-29 14:39 42.88108 17.21655 25561 ft 399 kts 294°
2026-04-29 14:39 42.89293 17.18217 25897 ft 401 kts 294°
2026-04-29 14:39 42.90501 17.14715 26233 ft 403 kts 294°
2026-04-29 14:40 42.91678 17.11293 26553 ft 405 kts 294°
2026-04-29 14:40 42.92877 17.07802 26878 ft 407 kts 294°
2026-04-29 14:40 42.94080 17.04295 27184 ft 409 kts 294°
2026-04-29 14:40 42.95287 17.00769 27500 ft 411 kts 294°
2026-04-29 14:41 42.96497 16.97226 27802 ft 413 kts 294°
2026-04-29 14:41 42.97711 16.93666 28094 ft 415 kts 294°
2026-04-29 14:41 42.98932 16.90085 28375 ft 417 kts 294°
2026-04-29 14:41 43.00157 16.86495 28652 ft 418 kts 294°
2026-04-29 14:42 43.01389 16.82883 28917 ft 420 kts 294°
2026-04-29 14:42 43.02624 16.79259 29161 ft 422 kts 294°
2026-04-29 14:42 43.03860 16.75615 29407 ft 423 kts 294°
2026-04-29 14:42 43.05098 16.71956 29641 ft 425 kts 294°
2026-04-29 14:43 43.06336 16.68286 29949 ft 425 kts 294°
2026-04-29 14:43 43.07572 16.64618 30248 ft 424 kts 294°
2026-04-29 14:43 43.08821 16.60966 30529 ft 424 kts 296°
2026-04-29 14:43 43.10397 16.57560 30810 ft 425 kts 306°
2026-04-29 14:44 43.12403 16.54588 31094 ft 427 kts 316°
2026-04-29 14:44 43.14782 16.52149 31377 ft 430 kts 326°
2026-04-29 14:44 43.17460 16.50302 31674 ft 432 kts 332°
2026-04-29 14:44 43.20209 16.48633 31961 ft 431 kts 332°
2026-04-29 14:45 43.22946 16.46960 32262 ft 430 kts 332°
2026-04-29 14:45 43.25674 16.45282 32568 ft 429 kts 332°
2026-04-29 14:45 43.28391 16.43606 32864 ft 428 kts 332°
2026-04-29 14:45 43.31102 16.41935 33156 ft 427 kts 332°
2026-04-29 14:46 43.33809 16.40269 33448 ft 426 kts 332°
2026-04-29 14:46 43.36511 16.38605 33726 ft 425 kts 332°
2026-04-29 14:46 43.39168 16.36965 34014 ft 424 kts 332°
2026-04-29 14:46 43.41855 16.35306 34267 ft 423 kts 332°
2026-04-29 14:47 43.44540 16.33644 34521 ft 423 kts 332°
2026-04-29 14:47 43.47214 16.31985 34773 ft 422 kts 331°
2026-04-29 14:47 43.49888 16.30327 35019 ft 420 kts 331°
2026-04-29 14:47 43.51672 16.29175 35182 ft 419 kts 330°
2026-04-29 14:48 43.55118 16.26810 35482 ft 417 kts 328°
2026-04-29 14:48 43.57689 16.24969 35705 ft 416 kts 328°
2026-04-29 14:48 43.60250 16.23115 35909 ft 415 kts 328°
2026-04-29 14:48 43.62809 16.21265 36021 ft 416 kts 328°
2026-04-29 14:49 43.65379 16.19423 36043 ft 417 kts 328°
2026-04-29 14:49 43.70540 16.15768 36043 ft 417 kts 329°
2026-04-29 14:50 43.74861 16.12718 36046 ft 416 kts 328°
2026-04-29 14:50 43.79985 16.09089 36046 ft 416 kts 328°
2026-04-29 14:51 43.85138 16.05426 36047 ft 416 kts 328°
2026-04-29 14:51 43.90296 16.01762 36051 ft 417 kts 328°
2026-04-29 14:52 43.95454 15.98093 36054 ft 416 kts 328°
2026-04-29 14:52 44.00607 15.94410 36048 ft 416 kts 328°
2026-04-29 14:53 44.05756 15.90717 36058 ft 417 kts 328°
2026-04-29 14:53 44.10911 15.87013 36011 ft 418 kts 328°
2026-04-29 14:53 44.13490 15.85159 35761 ft 417 kts 328°
2026-04-29 14:54 44.16066 15.83313 35509 ft 417 kts 328°
2026-04-29 14:54 44.18648 15.81462 35263 ft 418 kts 328°
2026-04-29 14:54 44.21234 15.79604 35019 ft 419 kts 328°
2026-04-29 14:54 44.23827 15.77740 34775 ft 420 kts 328°
2026-04-29 14:55 44.26430 15.75870 34537 ft 422 kts 328°
2026-04-29 14:55 44.29036 15.73990 34337 ft 423 kts 328°
2026-04-29 14:55 44.31648 15.72105 34102 ft 422 kts 328°
2026-04-29 14:55 44.34252 15.70225 33826 ft 421 kts 328°
2026-04-29 14:56 44.36851 15.68342 33553 ft 421 kts 328°
2026-04-29 14:56 44.39457 15.66455 33299 ft 422 kts 328°
2026-04-29 14:56 44.42068 15.64562 33037 ft 422 kts 328°
2026-04-29 14:56 44.44675 15.62664 32762 ft 423 kts 328°
2026-04-29 14:57 44.47285 15.60759 32526 ft 423 kts 328°
2026-04-29 14:57 44.49897 15.58854 32257 ft 424 kts 328°
2026-04-29 14:57 44.52515 15.56946 31993 ft 424 kts 329°
2026-04-29 14:57 44.55131 15.55040 31764 ft 424 kts 329°
2026-04-29 14:58 44.57747 15.53130 31508 ft 424 kts 329°
2026-04-29 14:58 44.60364 15.51216 31248 ft 425 kts 329°
2026-04-29 14:58 44.62992 15.49294 31003 ft 426 kts 329°
2026-04-29 14:58 44.65619 15.47369 30788 ft 427 kts 329°
2026-04-29 14:59 44.68255 15.45435 30533 ft 427 kts 329°
2026-04-29 14:59 44.70890 15.43504 30283 ft 428 kts 329°
2026-04-29 14:59 44.73503 15.41590 30063 ft 429 kts 328°
2026-04-29 14:59 44.76144 15.39652 29777 ft 428 kts 328°
2026-04-29 15:00 44.78782 15.37709 29494 ft 427 kts 328°
2026-04-29 15:00 44.81410 15.35772 29219 ft 425 kts 328°
2026-04-29 15:00 44.84023 15.33841 28930 ft 424 kts 328°
2026-04-29 15:00 44.86638 15.31904 28656 ft 423 kts 328°
2026-04-29 15:01 44.89239 15.29978 28385 ft 422 kts 328°
2026-04-29 15:01 44.91834 15.28058 28137 ft 420 kts 328°
2026-04-29 15:01 44.94419 15.26144 27893 ft 419 kts 328°
2026-04-29 15:01 44.96982 15.24243 27439 ft 413 kts 328°
2026-04-29 15:02 44.99514 15.22364 26840 ft 408 kts 328°
2026-04-29 15:02 45.02008 15.20508 26246 ft 403 kts 328°
2026-04-29 15:02 45.04477 15.18668 25665 ft 399 kts 329°
2026-04-29 15:02 45.07022 15.17105 25079 ft 399 kts 337°
2026-04-29 15:03 45.09690 15.16023 24497 ft 398 kts 340°
2026-04-29 15:03 45.12352 15.14997 23945 ft 395 kts 340°
2026-04-29 15:03 45.14990 15.13974 23356 ft 392 kts 340°
2026-04-29 15:03 45.17611 15.12958 22825 ft 389 kts 340°
2026-04-29 15:04 45.20210 15.11960 22331 ft 385 kts 340°
2026-04-29 15:04 45.22783 15.10978 21830 ft 380 kts 340°
2026-04-29 15:04 45.25322 15.10012 21392 ft 376 kts 340°
2026-04-29 15:04 45.27833 15.09053 20939 ft 372 kts 340°
2026-04-29 15:05 45.30309 15.08105 20518 ft 366 kts 341°
2026-04-29 15:05 45.32751 15.07170 20111 ft 361 kts 340°
2026-04-29 15:05 45.35162 15.06246 19705 ft 356 kts 340°
2026-04-29 15:05 45.37506 15.05346 19328 ft 351 kts 340°
2026-04-29 15:06 45.39888 15.04428 18905 ft 349 kts 340°
2026-04-29 15:06 45.42231 15.03524 18495 ft 348 kts 340°
2026-04-29 15:06 45.44565 15.02623 18042 ft 347 kts 341°
2026-04-29 15:06 45.46861 15.01739 17624 ft 345 kts 340°
2026-04-29 15:07 45.49189 15.00922 17196 ft 346 kts 346°
2026-04-29 15:07 45.51593 15.00572 16767 ft 349 kts 353°
2026-04-29 15:07 45.54014 15.00427 16328 ft 347 kts 353°
2026-04-29 15:07 45.56424 15.00286 15885 ft 346 kts 353°
2026-04-29 15:08 45.58829 15.00142 15435 ft 345 kts 353°
2026-04-29 15:08 45.61228 14.99995 14978 ft 345 kts 353°
2026-04-29 15:08 45.63625 14.99805 14466 ft 347 kts 350°
2026-04-29 15:08 45.66034 14.99224 13655 ft 354 kts 345°
2026-04-29 15:09 45.68453 14.98501 13036 ft 355 kts 345°
2026-04-29 15:09 45.70853 14.97738 12493 ft 352 kts 343°
2026-04-29 15:09 45.73194 14.96781 11963 ft 349 kts 341°
2026-04-29 15:09 45.75504 14.95754 11462 ft 347 kts 341°
2026-04-29 15:10 45.77793 14.94705 11005 ft 344 kts 341°
2026-04-29 15:10 45.80057 14.93645 10534 ft 341 kts 341°
2026-04-29 15:10 45.82232 14.92406 10335 ft 330 kts 335°
2026-04-29 15:10 45.84280 14.91077 10213 ft 317 kts 335°
2026-04-29 15:11 45.86239 14.89777 10089 ft 304 kts 335°
2026-04-29 15:11 45.88121 14.88516 9952 ft 293 kts 335°
2026-04-29 15:11 45.89939 14.87297 9711 ft 285 kts 335°
2026-04-29 15:11 45.91728 14.86099 9343 ft 283 kts 335°
2026-04-29 15:12 45.93505 14.84908 8964 ft 281 kts 336°
2026-04-29 15:12 45.94700 14.84109 8697 ft 280 kts 336°
2026-04-29 15:12 45.97018 14.82558 7986 ft 275 kts 336°
2026-04-29 15:12 45.98752 14.81397 7318 ft 274 kts 336°
2026-04-29 15:13 46.00471 14.80244 6691 ft 272 kts 337°
2026-04-29 15:13 46.02177 14.79099 6053 ft 269 kts 337°
2026-04-29 15:13 46.03875 14.77959 5533 ft 270 kts 337°
2026-04-29 15:13 46.05547 14.76832 5369 ft 259 kts 335°
2026-04-29 15:14 46.07001 14.75395 5236 ft 250 kts 317°
2026-04-29 15:14 46.08087 14.73517 5110 ft 238 kts 308°
2026-04-29 15:14 46.09051 14.71650 4987 ft 227 kts 308°
2026-04-29 15:14 46.09972 14.69869 4845 ft 217 kts 308°
2026-04-29 15:15 46.10840 14.68189 4758 ft 202 kts 308°
2026-04-29 15:15 46.11666 14.66588 4495 ft 196 kts 308°
2026-04-29 15:15 46.12470 14.65029 4258 ft 191 kts 308°
2026-04-29 15:15 46.13254 14.63509 3999 ft 186 kts 309°
2026-04-29 15:16 46.14016 14.62028 3741 ft 182 kts 309°
2026-04-29 15:16 46.14764 14.60575 3508 ft 179 kts 309°
2026-04-29 15:16 46.15499 14.59148 3270 ft 176 kts 309°
2026-04-29 15:16 46.16221 14.57743 3019 ft 171 kts 308°
2026-04-29 15:17 46.16909 14.56406 2800 ft 162 kts 308°
2026-04-29 15:17 46.17560 14.55138 2594 ft 154 kts 308°
2026-04-29 15:17 46.18193 14.53907 2368 ft 151 kts 306°
2026-04-29 15:17 46.18812 14.52694 2137 ft 149 kts 306°
2026-04-29 15:18 46.19432 14.51489 1917 ft 149 kts 306°
2026-04-29 15:18 46.20047 14.50292 1709 ft 148 kts 306°
2026-04-29 15:18 46.20657 14.49103 1508 ft 148 kts 306°
2026-04-29 15:18 46.21267 14.47915 1317 ft 148 kts 305°
2026-04-29 15:19 46.21862 14.46753 1222 ft 128 kts 306°
2026-04-29 15:19 46.22273 14.45950 1246 ft 69 kts 306°
2026-04-29 15:19 46.22506 14.45520 1247 ft 41 kts 312°
2026-04-29 15:19 46.22698 14.45348 1262 ft 25 kts 344°
2026-04-29 15:20 46.22817 14.45317 1262 ft 15 kts 356°
2026-04-29 15:20 46.22902 14.45376 1264 ft 13 kts 36°
2026-04-29 15:20 46.22965 14.45387 1260 ft 9 kts 334°
2026-04-29 15:20 46.23016 14.45408 1260 ft 6 kts 36°
2026-04-29 15:21 46.23028 14.45420 1263 ft 0 kts 36°